AirNav   Everest Fuels
 
 422 users online  

7K5 Kenmare Municipal Airport
Kenmare, North Dakota, USA

GOING TO KENMARE?


FAA INFORMATION EFFECTIVE 07 OCTOBER 2021

Location

FAA Identifier: 7K5
Lat/Long: 48-40-03.4050N 102-02-52.8100W
48-40.056750N 102-02.880167W
48.6676125,-102.0480028
(estimated)
Elevation: 1962 ft. / 598.0 m (surveyed)
Variation: 10E (2000)
From city: 1 mile SE of KENMARE, ND
Time zone: UTC -5 (UTC -6 during Standard Time)
Zip code: 58746

Airport Operations

Airport use: Open to the public
Activation date: 10/1968
Control tower: no
ARTCC: MINNEAPOLIS CENTER
FSS: GRAND FORKS FLIGHT SERVICE STATION
NOTAMs facility: GFK (NOTAM-D service available)
Attendance: UNATNDD
Wind indicator: lighted
Segmented circle: yes
Lights: ACTVT PAPI RY 08/26; MIRL RY 08/26 - CTAF.
Beacon: white-green (lighted land airport)
SS-SR. BCN OTS INDEF.

Airport Communications

CTAF/UNICOM: 122.8
MINOT APPROACH: 119.6 [OPR 1200-0530Z++; CLSD HOL.]
MINOT DEPARTURE: 119.6 [OPR 1200-0530Z++; CLSD HOL.]
  • APCH/DEP SVC PRVDD BY MINNEAPOLIS ARTCC ON FREQS 127.6/279.6 ( MINOT RCAG) WHEN MINOT APCH CTL CLSD.

Nearby radio navigation aids

VOR radial/distance  VOR name  Freq  Var
MOTr296/38.9MINOT VOR/DME117.1013E

Airport Services

Fuel available: 100LL
100LL:24-HR SELF- SERVICE FUEL AVBL WITH CREDIT CARD.
Parking: tiedowns
Bottled oxygen: NONE
Bulk oxygen: NONE

Runway Information

Runway 8/26

Dimensions: 3700 x 60 ft. / 1128 x 18 m
Surface: asphalt, in good condition
Weight bearing capacity: 
Single wheel: 12.0
Runway edge lights: medium intensity
RUNWAY 8  RUNWAY 26
Latitude: 48-40.056333N48-40.057167N
Longitude: 102-03.339333W102-02.421000W
Elevation: 1962.0 ft.1955.0 ft.
Traffic pattern: leftleft
Runway heading: 080 magnetic, 090 true260 magnetic, 270 true
Markings: nonprecision, in good conditionnonprecision, in good condition
Visual slope indicator: 2-light PAPI on left (3.00 degrees glide path)2-light PAPI on left (3.00 degrees glide path)
Runway end identifier lights: yesyes
Touchdown point: yes, no lightsyes, no lights
Obstructions: 40 ft. pole, 1260 ft. from runway, 50 ft. left of centerline, 26:1 slope to clear
ALSO +30 FT BLDGS 1300 FT FM THLD & 25 FT R OF EXTDD CNTRLN; +254 FT TWR 8000 FT FM THLD.
none
CLSD ROAD 360 FT FM THLD ON EXTENDED CENTERLINE.

Airport Ownership and Management from official FAA records

Ownership: Publicly-owned
Owner: KENMARE ARPT AUTH
BOX 326
KENMARE, ND 58746
Phone 701-848-6322
Manager: HANK BODMER
BOX 326
KENMARE, ND 58746
Phone 701-848-6322
ADDITONAL PHONE MARK GRAVESEN 701-385-4074.

Airport Operational Statistics

Aircraft based on the field: 31
Single engine airplanes: 31
    
Aircraft operations: avg 65/week *
59% local general aviation
32% transient general aviation
9% air taxi
* for 12-month period ending 24 January 2018

Additional Remarks

CONFIRM WINTER CONDITIONS & SNOW REMOVAL WITH AMGR 701-848-6322.
WILDLIFE REFUGE LCTD 3500 FT W.
WATERFOWL ON OR INVOF ARPT.
FOR CD CTC MINNEAPOLIS ARTCC AT 651-463-5588.

Instrument Procedures

NOTE: All procedures below are presented as PDF files. If you need a reader for these files, you should download the free Adobe Reader.

NOT FOR NAVIGATION. Please procure official charts for flight.
FAA instrument procedures published for use from 07 October 2021 at 0901Z to 04 November 2021 at 0900z.

 
IAPs - Instrument Approach Procedures
RNAV (GPS) RWY 26   download (181KB)
NOTE: Special Take-Off Minimums/Departure Procedures apply   download (156KB)

Other nearby airports with instrument procedures:

KHBC - Mohall Municipal Airport (21 nm E)
08D - Stanley Municipal Airport (26 nm SW)
KMIB - Minot Air Force Base (31 nm SE)
D60 - Tioga Municipal Airport (38 nm SW)
KMOT - Minot International Airport (39 nm SE)
 
Loc | Ops | Rwys | IFR | FBO | Links
Com | Nav | Svcs | Stats | Notes

Bismarck Aero Center
AirBoss

 
Area around 7K5 (Kenmare Municipal Airport)
 
Road maps at: MapQuest Bing Google
 
Aerial photo
WARNING: Photo may not be current or correct
Aerial photo of 7K5 (Kenmare Municipal Airport)
Do you have a better or more recent aerial photo of Kenmare Municipal Airport that you would like to share? If so, please send us your photo.

 
Sectional chart

 
Airport distance calculator
Flying to Kenmare Municipal Airport? Find the distance to fly.

From to 7K5

Sunrise and sunset
Times for 20-Oct-2021
 Local
(UTC-5)
 Zulu
(UTC)
Morning civil twilight07:4512:45
Sunrise08:1713:17
Sunset18:4923:49
Evening civil twilight19:2100:21

Current date and time
Zulu (UTC)  20-Oct-2021 07:50:11
Local (UTC-5)  20-Oct-2021 02:50:11
 
METAR
K08D 
26nm SW 
200715Z AUTO 05011KT 10SM OVC020 01/M01 A3031 RMK AO2
KMIB 
32nm SE 
200656Z AUTO 02008KT 10SM OVC028 M01/M04 A3029 RMK AO2 OVC V BKN SLPNO T10091038 $
KD60 
38nm SW 
200735Z AUTO 07009KT 10SM OVC019 00/M01 A3032 RMK AO2
KMOT 
40nm SE 
200654Z AUTO 34009KT 10SM OVC029 02/M02 A3030 RMK AO2 SLP276 T00221017
CYEN 
49nm NW 
200700Z AUTO 02005KT 9SM CLR M07/M08 A3035 RMK SLP308
TAF
KMIB 
32nm SE 
200224Z 2002/2107 04009KT 9999 FEW200 QNH3022INS BECMG 2006/2007 04009KT 9999 FEW050 SCT100 SCT180 QNH3025INS BECMG 2009/2010 05010G15KT 9999 SCT030 SCT100 SCT160 QNH3029INS BECMG 2020/2021 05015G25KT 9999 SCT050 SCT200 QNH3030INS BECMG 2100/2101 09009KT 9999 FEW060 SCT220 QNH3024INS TX11/2020Z TNM02/2011Z
KMOT 
40nm SE 
200527Z 2006/2106 01009KT P6SM BKN025 FM201600 02011KT P6SM BKN035 FM201900 02010KT P6SM SCT100
NOTAMs
Click for the latest NOTAMs
NOTAMs are issued by the DoD/FAA and will open in a separate window not controlled by AirNav.

 

 
 

FBO, Fuel Providers, and Aircraft Ground Support

  
 Business Name 
 
 Contact 
 
 Services / Description 
 
Fuel Prices
 
Comments
  
Kenmare Municipal Airport 701-385-9335
no information available

If you are affiliated with Kenmare Municipal Airport and would like to show here your services, contact info, web link, logo, and more, click here
100LL
PS $5.00 
 Updated 14-Oct-2021
 
   write
PS=Pump service
Update Fuel Prices
 

Would you like to see your business listed on this page?

 If your business provides an interesting product or service to pilots, flight crews, aircraft, or users of the Kenmare Municipal Airport, you should consider listing it here.  To start the listing process, click on the button below
 
Add a business
 

Other Pages about Kenmare Municipal Airport

www.kenmarend.com/...
 
Update a link
 
Copyright © AirNav, LLC. All rights reserved. Privacy Policy  Contact